Regional Weather Roundup
Issued by NWS

Home | Current Version | Previous Version | Graphics & Text | Print | Product List | Glossary On
Versions: 1 2 3 4 5 6 7 8 9 10 11 12 13 14 15 16 17 18 19 20 21 22 23 24 25 26 27 28 29 30 31 32 33 34 35 36 37 38 39 40 41 42 43 44 45 46 47 48 49 50
000
ASUS45 KTFX 290404
RWRMT
MONTANA HOURLY WEATHER ROUNDUP
NATIONAL WEATHER SERVICE GREAT FALLS MT
904 PM MST FRI NOV 28 2014

NOTE: "FAIR" INDICATES FEW OR NO CLOUDS BELOW 12000 FEET WITH NO
SIGNIFICANT WEATHER AND/OR OBSTRUCTIONS TO VISIBILITY.

* THESE STATIONS ARE NOT UNDER NWS QUALITY CONTROL. THEY DO NOT
   REPORT WEATHER SUCH AS PRECIPITATION OR FOG.

MTZ001>007-043-290500-
WEST OF THE DIVIDE
CITY           SKY/WX    TMP DP  RH WIND       PRES   REMARKS
KALISPELL      LGT RAIN  45  37  74 S14G20    29.20F
MISSOULA       CLOUDY    45  36  71 CALM      29.39F
BUTTE          PTCLDY    43  25  49 SW24G44   29.45F
MULLAN PASS    LGT SNOW  32  32 100 SW15G33   29.25F VSB 1 3/4 WCI  22
* ESSEX        N/A       12   8  84 SE16G37    N/A   WCI  -5
* LINCOLN      N/A       42  29  60 W4G12      N/A
* LOOKOUT PASS N/A       38  35  89 S6G25      N/A   WCI  33
* POLSON       N/A       42  36  79 S5G12      N/A
* RONAN APT    CLOUDY    46  36  68 SE11G23    N/A
* SEELEY LAKE  N/A       39  32  76 S3G9       N/A
* THOMP F APT  CLOUDY    34  15  46 E5G12      N/A   WCI  29
* YAAK HILL    N/A       43  40  89 SE2G10     N/A
$$

MTZ008-052>055-290500-
SOUTHWEST MONTANA
CITY           SKY/WX    TMP DP  RH WIND       PRES   REMARKS
BOZEMAN        PTCLDY    46  19  34 W10       29.44F
DILLON         PTCLDY    39  19  45 SW14      29.49F WCI  31
* W YELLOWSTON MOCLDY    37  21  52 SW5G16     N/A   WCI  33
* ENNIS APT    PTCLDY    46  12  25 SE15G24    N/A
* THREE FORKS  PTCLDY    50  28  43 SW13G20    N/A
* BOULDER HILL N/A       43  17  35 S14G29     N/A
* MONIDA PASS  N/A       35  10  35 SE12G17    N/A   WCI  27
* RAYNOLDS PAS N/A       39  21  48 SE29G37    N/A   WCI  27
* WHITEHALL    N/A       47  16  29 SW12G24    N/A
* WISE RIVER   N/A       42  22  45 W26G45     N/A
$$

MTZ009>010-012-014-046-048-049-054-290500-
EAST SLOPES AND CENTRAL MONTANA
CITY           SKY/WX    TMP DP  RH WIND       PRES   REMARKS
CUT BANK       LGT SNOW  -6  -9  87 N15       29.60S VSB 1 1/4 WCI -27
GREAT FALLS    CLOUDY     1  -2  87 N15       29.56R WCI -18
HELENA         MOCLDY    45  30  56 VRB3      29.36F
MALMSTROM AFB  LGT SNOW   1  -2  87 N15       29.60S WCI -18
* EAST GLACIER N/A       -9 -14  78 NE14G20    N/A   WCI -30
* MONARCH      N/A        8   4  84 W5         N/A   WCI  -1
* PENDROY      N/A       -5  -7  91 N18G24     N/A   WCI -28
* SAINT MARY   N/A       -8 -15  71 NE3G10     N/A
* SWEET GRASS  N/A       -7 -11  82 N24        N/A   WCI -33
$$

MTZ011-013-016-021-035-040-045-047-050-051-290500-
NORTH CENTRAL MONTANA
CITY           SKY/WX    TMP DP  RH WIND       PRES   REMARKS
HAVRE          CLOUDY     1  -2  87 NW18G24   29.66S WCI -20
LEWISTOWN      LGT SNOW  10   7  88 W13       29.46R WCI  -5
* N BAR RANCH  CLEAR     25  21  85 SE9G16    29.39R WCI  16
* CHESTER      N/A        0  -5  79 E7G12      N/A   WCI -13
* DENTON       N/A        6   3  87 NW13G19    N/A   WCI -11
* JUDITH GAP   N/A       48  22  36 W14G27     N/A
* LOMA         N/A        3  -2  79 N16        N/A   WCI -16
$$

MTZ017>020-022>027-061-062-290500-
NORTHEAST MONTANA
CITY           SKY/WX    TMP DP  RH WIND       PRES   REMARKS
GLASGOW        CLOUDY    18  10  71 NW17      29.52R WCI   3
GLENDIVE       CLOUDY    30  27  89 NW17G24   29.41R WCI  18
JORDAN         CLOUDY    25  23  92 N14       29.47R WCI  13
SIDNEY         CLOUDY    27  23  85 CALM      29.44S
WOLF POINT     CLOUDY    27  21  78 N10       29.49R WCI  18
* BEAVER HILL  N/A       41  31  68 W15        N/A
* CIRCLE       N/A       31  29  92 NW5        N/A   WCI  26
* LINDSAY DVD  N/A       27  26  96 NW15       N/A   WCI  15
* NAVAJO       N/A       19  17  92 NW14       N/A   WCI   5
* SACO         N/A       11   3  70 NW18G24    N/A   WCI  -7
$$

MTZ028>042-056>058-290500-
SOUTHCENTRAL AND SOUTHEAST MONTANA
CITY           SKY/WX    TMP DP  RH WIND       PRES   REMARKS
BAKER          CLOUDY    52  30  43 SW17G23   29.40S
BILLINGS       MOCLDY    50  18  28 SW14      29.38F
LIVINGSTON     MOCLDY    54  14  20 SW35G46   29.40F
MILES CITY     MOCLDY    41  32  70 NW15G23   29.38R
* LAUREL APT   MOCLDY    46  18  33 N/A        N/A
* ALZADA       N/A       45  27  49 S1         N/A
* LAME DEER    N/A       47  20  34 S11        N/A
* REED POINT   N/A       47  23  39 SW1        N/A
* ROSCOE HILL  N/A       51  -3  10 S20G40     N/A
$$

REGIONAL REPORTS...DAKOTAS
CITY           SKY/WX    TMP DP  RH WIND       PRES   REMARKS
WILLISTON      CLOUDY    19  16  88 NW5       29.44R WCI  12
DICKINSON      CLOUDY    41  30  65 SW9       29.34F
BEACH          CLOUDY    45  32  60 SW13      29.37F
CROSBY         LGT SNOW  14  12  92 NE7       29.44S WCI   4
BISMARCK       PTCLDY    16  12  84 SE8       29.46F WCI   5
GRAND FORKS    CLOUDY    18  10  71 S13       29.63R WCI   5
FARGO          CLOUDY    19  12  74 SE15      29.60F WCI   5
BUFFALO SD     MOCLDY    45  28  51 W10       29.37F
RAPID CITY     MOCLDY    50  23  35 W5        29.51S
$$

REGIONAL REPORTS...WYOMING/IDAHO/WASHINGTON
CITY           SKY/WX    TMP DP  RH WIND       PRES   REMARKS
GILLETTE       MOCLDY    48  21  34 SW21G31   29.51F
SHERIDAN       PTCLDY    61   7  11 VRB7      29.44F
CODY           PTCLDY    52  14  22 SW14G21   29.57F
YELLOWSTONE LA CLOUDY    36  12  37 W8        29.69F WCI  30
SALMON         MOCLDY    43  21  42 CALM      29.51F
MULLAN PASS    LGT SNOW  32  32 100 SW15G33   29.25S VSB 1 3/4 WCI  22
SAND POINT     LGT RAIN  46  46 100 SW12G18   29.19S
SPOKANE        LGT RAIN  46  43  89 SW26G38   29.25S
$$

REGIONAL REPORTS...ALBERTA
CITY           SKY/WX    TMP DP  RH WIND       PRES   REMARKS
EDMONTON       LGT SNOW  -9 -17  67 NW12      29.83S WCI -29
$$

REGIONAL REPORTS...SASKATCHEWAN
CITY           SKY/WX    TMP DP  RH WIND       PRES   REMARKS
SWIFT CURRENT  LGT SNOW   0  -4  83 NW17      29.54F WCI -21

$$




USA.gov is the U.S. government's official web portal to all federal, state and local government web resources and services.